| time (UTC) | temp F | wind direction | speed MPH | gust MPH | rain 1hr in | rain 24hr in | rain mn in | humidity % | barometer mb |
| 20260906052510 | 83 | 360 | 1.0 | 0.0 | 0.00 | 0.00 | 0.00 | 21 | 1004.0 |
| 20260906052054 | 83 | 360 | 1.0 | 0.0 | 0.00 | 0.00 | 0.00 | 21 | 1003.9 |
| 20260906051533 | 84 | 360 | 1.0 | 0.0 | 0.00 | 0.00 | 0.00 | 21 | 1003.9 |
| 20260906051013 | 83 | 360 | 1.0 | 0.0 | 0.00 | 0.00 | 0.00 | 21 | 1003.9 |
| 20260906050559 | 83 | 360 | 1.0 | 0.0 | 0.00 | 0.00 | 0.00 | 21 | 1003.9 |
| 20260906050046 | 83 | 360 | 1.0 | 0.0 | 0.00 | 0.00 | 0.00 | 21 | 1003.9 |
| 20260906045519 | 83 | 360 | 1.0 | 0.0 | 0.00 | 0.00 | 0.00 | 21 | 1004.1 |
| 20260906045102 | 84 | 360 | 2.0 | 0.0 | 0.00 | 0.00 | 0.00 | 20 | 1004.1 |
| 20260906044547 | 84 | 360 | 2.0 | 0.0 | 0.00 | 0.00 | 0.00 | 21 | 1004.1 |
| 20260906044029 | 84 | 360 | 2.0 | 0.0 | 0.00 | 0.00 | 0.00 | 21 | 1004.1 |
| 20260906043506 | 84 | 360 | 2.0 | 0.0 | 0.00 | 0.00 | 0.00 | 21 | 1004.1 |
| 20260906043053 | 84 | 360 | 3.0 | 0.0 | 0.00 | 0.00 | 0.00 | 21 | 1004.1 |
| 20260906042534 | 84 | 360 | 3.0 | 0.0 | 0.00 | 0.00 | 0.00 | 21 | 1004.1 |
| 20260906042014 | 84 | 360 | 2.0 | 0.0 | 0.00 | 0.00 | 0.00 | 21 | 1004.1 |
| 20260906041558 | 84 | 360 | 2.0 | 0.0 | 0.00 | 0.00 | 0.00 | 21 | 1004.1 |
| 20260906041043 | 84 | 360 | 2.0 | 0.0 | 0.00 | 0.00 | 0.00 | 21 | 1004.1 |
| 20260906040520 | 84 | 360 | 2.0 | 0.0 | 0.00 | 0.00 | 0.00 | 20 | 1004.1 |
| 20260906040105 | 85 | 360 | 2.0 | 0.0 | 0.00 | 0.00 | 0.00 | 20 | 1004.1 |
| 20260906035543 | 86 | 360 | 2.0 | 0.0 | 0.00 | 0.00 | 0.00 | 20 | 1004.2 |
| 20260906035026 | 87 | 360 | 1.0 | 0.0 | 0.00 | 0.00 | 0.00 | 20 | 1004.1 |
| 20260906034506 | 87 | 360 | 1.0 | 0.0 | 0.00 | 0.00 | 0.00 | 20 | 1004.0 |
| 20260906034048 | 87 | 360 | 1.0 | 0.0 | 0.00 | 0.00 | 0.00 | 20 | 1003.9 |
| 20260906033527 | 87 | 360 | 0.0 | 0.0 | 0.00 | 0.00 | 0.00 | 19 | 1003.9 |
| 20260906033032 | 87 | 360 | 1.0 | 0.0 | 0.00 | 0.00 | 0.00 | 19 | 1003.8 |
| 20260906032557 | 87 | 360 | 1.0 | 0.0 | 0.00 | 0.00 | 0.00 | 19 | 1003.7 |
| 20260906032047 | 88 | 360 | 1.0 | 0.0 | 0.00 | 0.00 | 0.00 | 19 | 1003.6 |
| 20260906031529 | 88 | 360 | 1.0 | 0.0 | 0.00 | 0.00 | 0.00 | 19 | 1003.6 |
| 20260906031005 | 88 | 360 | 1.0 | 0.0 | 0.00 | 0.00 | 0.00 | 19 | 1003.5 |
| 20260906030552 | 88 | 360 | 1.0 | 0.0 | 0.00 | 0.00 | 0.00 | 18 | 1003.4 |
| 20260906030035 | 88 | 360 | 1.0 | 0.0 | 0.00 | 0.00 | 0.00 | 18 | 1003.4 |
| 20260906025516 | 89 | 360 | 1.0 | 0.0 | 0.00 | 0.00 | 0.00 | 18 | 1003.6 |
| 20260906025103 | 89 | 360 | 1.0 | 0.0 | 0.00 | 0.00 | 0.00 | 18 | 1003.6 |
| 20260906024546 | 89 | 360 | 1.0 | 0.0 | 0.00 | 0.00 | 0.00 | 18 | 1003.5 |
| 20260906024026 | 89 | 360 | 1.0 | 0.0 | 0.00 | 0.00 | 0.00 | 18 | 1003.4 |
| 20260906023507 | 89 | 360 | 2.0 | 0.0 | 0.00 | 0.00 | 0.00 | 18 | 1003.4 |
| 20260906023054 | 89 | 360 | 2.0 | 0.0 | 0.00 | 0.00 | 0.00 | 18 | 1003.3 |
| 20260906022535 | 89 | 360 | 2.0 | 0.0 | 0.00 | 0.00 | 0.00 | 17 | 1003.4 |
| 20260906022015 | 90 | 360 | 1.0 | 0.0 | 0.00 | 0.00 | 0.00 | 17 | 1003.3 |
| 20260906021607 | 90 | 360 | 2.0 | 0.0 | 0.00 | 0.00 | 0.00 | 17 | 1003.3 |
| 20260906021043 | 90 | 360 | 2.0 | 0.0 | 0.00 | 0.00 | 0.00 | 18 | 1003.1 |
| 20260906020523 | 90 | 360 | 2.0 | 0.0 | 0.00 | 0.00 | 0.00 | 17 | 1003.1 |
| 20260906020003 | 90 | 360 | 2.0 | 0.0 | 0.00 | 0.00 | 0.00 | 17 | 1003.2 |
| 20260906015546 | 91 | 360 | 2.0 | 0.0 | 0.00 | 0.00 | 0.00 | 17 | 1003.5 |
| 20260906015032 | 91 | 360 | 2.0 | 0.0 | 0.00 | 0.00 | 0.00 | 16 | 1003.5 |
| 20260906014511 | 92 | 360 | 2.0 | 0.0 | 0.00 | 0.00 | 0.00 | 16 | 1003.5 |
| 20260906014057 | 91 | 360 | 2.0 | 0.0 | 0.00 | 0.00 | 0.00 | 16 | 1003.4 |
| 20260906013540 | 92 | 360 | 2.0 | 0.0 | 0.00 | 0.00 | 0.00 | 16 | 1003.5 |
| 20260906013022 | 92 | 360 | 2.0 | 0.0 | 0.00 | 0.00 | 0.00 | 15 | 1003.5 |
| 20260906012504 | 92 | 343 | 2.0 | 0.0 | 0.00 | 0.00 | 0.00 | 15 | 1003.5 |
| 20260906012051 | 93 | 245 | 2.0 | 0.0 | 0.00 | 0.00 | 0.00 | 15 | 1003.6 |
| 20260906011535 | 93 | 235 | 2.0 | 0.0 | 0.00 | 0.00 | 0.00 | 15 | 1003.5 |
| 20260906011009 | 93 | 202 | 2.0 | 0.0 | 0.00 | 0.00 | 0.00 | 15 | 1003.3 |
| 20260906010553 | 94 | 271 | 3.0 | 0.0 | 0.00 | 0.00 | 0.00 | 14 | 1003.3 |
| 20260906010041 | 94 | 141 | 3.0 | 0.0 | 0.00 | 0.00 | 0.00 | 13 | 1003.3 |
| 20260906005523 | 94 | 306 | 2.0 | 0.0 | 0.00 | 0.00 | 0.00 | 14 | 1003.3 |
| 20260906005003 | 94 | 180 | 3.0 | 0.0 | 0.00 | 0.00 | 0.00 | 14 | 1003.3 |
| 20260906004547 | 95 | 219 | 3.0 | 0.0 | 0.00 | 0.00 | 0.00 | 13 | 1003.3 |
| 20260906004027 | 95 | 5 | 2.0 | 0.0 | 0.00 | 0.00 | 0.00 | 13 | 1003.2 |
| 20260906003505 | 95 | 214 | 3.0 | 0.0 | 0.00 | 0.00 | 0.00 | 12 | 1003.4 |
| 20260906003052 | 95 | 49 | 3.0 | 0.0 | 0.00 | 0.00 | 0.00 | 12 | 1003.3 |
| 20260906002531 | 95 | 311 | 2.0 | 0.0 | 0.00 | 0.00 | 0.00 | 12 | 1003.3 |
| 20260906002011 | 95 | 360 | 3.0 | 0.0 | 0.00 | 0.00 | 0.00 | 12 | 1003.1 |
| 20260906001555 | 95 | 360 | 3.0 | 0.0 | 0.00 | 0.00 | 0.00 | 11 | 1003.2 |
| 20260906001034 | 96 | 360 | 2.0 | 0.0 | 0.00 | 0.00 | 0.00 | 12 | 1003.2 |
| 20260906000513 | 96 | 360 | 2.0 | 0.0 | 0.00 | 0.00 | 0.00 | 11 | 1003.3 |
| 20260906000057 | 96 | 360 | 2.0 | 0.0 | 0.00 | 0.00 | 0.00 | 11 | 1003.2 |
| 20260905235538 | 96 | 360 | 3.0 | 0.0 | 0.00 | 0.00 | 0.00 | 11 | 1003.0 |
| 20260905235023 | 96 | 360 | 3.0 | 0.0 | 0.00 | 0.00 | 0.00 | 11 | 1003.0 |
| 20260905234505 | 96 | 360 | 4.0 | 0.0 | 0.00 | 0.00 | 0.00 | 11 | 1003.2 |
| 20260905234049 | 96 | 360 | 3.0 | 0.0 | 0.00 | 0.00 | 0.00 | 9 | 1003.0 |
| 20260905233532 | 97 | 360 | 3.0 | 0.0 | 0.00 | 0.00 | 0.00 | 9 | 1002.9 |
| 20260905233014 | 97 | 360 | 3.0 | 0.0 | 0.00 | 0.00 | 0.00 | 9 | 1003.0 |
| 20260905232557 | 97 | 360 | 3.0 | 0.0 | 0.00 | 0.00 | 0.00 | 10 | 1003.0 |
| 20260905232045 | 97 | 360 | 3.0 | 0.0 | 0.00 | 0.00 | 0.00 | 9 | 1003.0 |
| 20260905231525 | 97 | 360 | 3.0 | 0.0 | 0.00 | 0.00 | 0.00 | 9 | 1003.1 |
| 20260905231006 | 97 | 360 | 4.0 | 0.0 | 0.00 | 0.00 | 0.00 | 10 | 1003.1 |
| 20260905230550 | 97 | 360 | 3.0 | 0.0 | 0.00 | 0.00 | 0.00 | 10 | 1003.3 |
| 20260905230030 | 97 | 360 | 3.0 | 0.0 | 0.00 | 0.00 | 0.00 | 10 | 1003.2 |
| 20260905225509 | 97 | 360 | 4.0 | 0.0 | 0.00 | 0.00 | 0.00 | 10 | 1003.1 |
| 20260905225052 | 97 | 360 | 4.0 | 0.0 | 0.00 | 0.00 | 0.00 | 9 | 1003.1 |
| 20260905224558 | 97 | 360 | 4.0 | 0.0 | 0.00 | 0.00 | 0.00 | 8 | 1003.3 |
| 20260905224021 | 97 | 360 | 4.0 | 0.0 | 0.00 | 0.00 | 0.00 | 7 | 1003.4 |
| 20260905223603 | 97 | 360 | 5.0 | 0.0 | 0.00 | 0.00 | 0.00 | 7 | 1003.4 |
| 20260905223041 | 97 | 360 | 5.0 | 0.0 | 0.00 | 0.00 | 0.00 | 7 | 1003.5 |
| 20260905222519 | 97 | 360 | 4.0 | 0.0 | 0.00 | 0.00 | 0.00 | 7 | 1003.5 |
| 20260905222101 | 97 | 360 | 4.0 | 0.0 | 0.00 | 0.00 | 0.00 | 7 | 1003.5 |
| 20260905221555 | 97 | 360 | 4.0 | 0.0 | 0.00 | 0.00 | 0.00 | 6 | 1003.5 |
| 20260905221028 | 98 | 360 | 4.0 | 0.0 | 0.00 | 0.00 | 0.00 | 6 | 1003.5 |
| 20260905220501 | 97 | 360 | 4.0 | 0.0 | 0.00 | 0.00 | 0.00 | 5 | 1003.5 |
| 20260905215527 | 97 | 360 | 4.0 | 0.0 | 0.00 | 0.00 | 0.00 | 5 | 1003.7 |
| 20260905215004 | 97 | 360 | 4.0 | 0.0 | 0.00 | 0.00 | 0.00 | 5 | 1003.7 |
| 20260905214551 | 97 | 360 | 3.0 | 0.0 | 0.00 | 0.00 | 0.00 | 4 | 1003.8 |
| 20260905214030 | 98 | 360 | 3.0 | 0.0 | 0.00 | 0.00 | 0.00 | 6 | 1003.7 |
| 20260905213509 | 98 | 360 | 3.0 | 0.0 | 0.00 | 0.00 | 0.00 | 7 | 1003.7 |
| 20260905213053 | 98 | 360 | 3.0 | 0.0 | 0.00 | 0.00 | 0.00 | 6 | 1003.8 |
| 20260905212532 | 98 | 360 | 3.0 | 0.0 | 0.00 | 0.00 | 0.00 | 6 | 1003.9 |
| 20260905212015 | 98 | 360 | 3.0 | 0.0 | 0.00 | 0.00 | 0.00 | 6 | 1003.9 |
| 20260905211628 | 98 | 360 | 3.0 | 0.0 | 0.00 | 0.00 | 0.00 | 5 | 1004.0 |
| 20260905211039 | 97 | 360 | 3.0 | 0.0 | 0.00 | 0.00 | 0.00 | 5 | 1004.0 |
| 20260905210521 | 98 | 360 | 3.0 | 0.0 | 0.00 | 0.00 | 0.00 | 6 | 1004.1 |
| 20260905210117 | 97 | 360 | 3.0 | 0.0 | 0.00 | 0.00 | 0.00 | 7 | 1004.0 |
| 20260905205541 | 97 | 360 | 3.0 | 0.0 | 0.00 | 0.00 | 0.00 | 7 | 1004.2 |
| 20260905205021 | 97 | 360 | 3.0 | 0.0 | 0.00 | 0.00 | 0.00 | 7 | 1004.2 |
| 20260905204608 | 97 | 360 | 3.0 | 0.0 | 0.00 | 0.00 | 0.00 | 6 | 1004.2 |
| 20260905204042 | 98 | 360 | 3.0 | 0.0 | 0.00 | 0.00 | 0.00 | 6 | 1004.1 |
| 20260905203523 | 97 | 360 | 3.0 | 0.0 | 0.00 | 0.00 | 0.00 | 5 | 1004.2 |
| 20260905203003 | 98 | 360 | 2.0 | 0.0 | 0.00 | 0.00 | 0.00 | 6 | 1004.2 |
| 20260905202545 | 97 | 360 | 2.0 | 0.0 | 0.00 | 0.00 | 0.00 | 5 | 1004.3 |
| 20260905202022 | 97 | 360 | 3.0 | 0.0 | 0.00 | 0.00 | 0.00 | 6 | 1004.4 |
| 20260905201604 | 96 | 360 | 3.0 | 0.0 | 0.00 | 0.00 | 0.00 | 6 | 1004.6 |
| 20260905201043 | 96 | 360 | 2.0 | 0.0 | 0.00 | 0.00 | 0.00 | 7 | 1004.4 |
| 20260905200513 | 96 | 360 | 2.0 | 0.0 | 0.00 | 0.00 | 0.00 | 8 | 1004.4 |
| 20260905195529 | 96 | 360 | 2.0 | 0.0 | 0.00 | 0.00 | 0.00 | 9 | 1004.2 |
| 20260905195007 | 95 | 360 | 2.0 | 0.0 | 0.00 | 0.00 | 0.00 | 10 | 1004.4 |
| 20260905194548 | 94 | 360 | 3.0 | 0.0 | 0.00 | 0.00 | 0.00 | 10 | 1004.5 |
| 20260905194031 | 93 | 360 | 3.0 | 0.0 | 0.00 | 0.00 | 0.00 | 12 | 1004.7 |
| 20260905193509 | 92 | 360 | 3.0 | 0.0 | 0.00 | 0.00 | 0.00 | 11 | 1004.8 |
| 20260905193052 | 91 | 360 | 4.0 | 0.0 | 0.00 | 0.00 | 0.00 | 13 | 1005.1 |
| 20260905192532 | 92 | 360 | 3.0 | 0.0 | 0.00 | 0.00 | 0.00 | 12 | 1004.9 |
| 20260905192010 | 91 | 360 | 3.0 | 0.0 | 0.00 | 0.00 | 0.00 | 13 | 1005.2 |
| 20260905191553 | 91 | 360 | 2.0 | 0.0 | 0.00 | 0.00 | 0.00 | 13 | 1005.3 |
| 20260905191031 | 92 | 360 | 2.0 | 0.0 | 0.00 | 0.00 | 0.00 | 12 | 1005.5 |
| 20260905190510 | 92 | 360 | 1.0 | 0.0 | 0.00 | 0.00 | 0.00 | 12 | 1005.5 |
| 20260905190053 | 92 | 360 | 1.0 | 0.0 | 0.00 | 0.00 | 0.00 | 13 | 1005.6 |
| 20260905185538 | 91 | 360 | 1.0 | 0.0 | 0.00 | 0.00 | 0.00 | 14 | 1005.5 |
| 20260905185015 | 92 | 360 | 1.0 | 0.0 | 0.00 | 0.00 | 0.00 | 13 | 1005.7 |
| 20260905184603 | 91 | 360 | 1.0 | 0.0 | 0.00 | 0.00 | 0.00 | 14 | 1005.7 |
| 20260905184042 | 92 | 360 | 1.0 | 0.0 | 0.00 | 0.00 | 0.00 | 14 | 1005.8 |
| 20260905183520 | 92 | 360 | 2.0 | 0.0 | 0.00 | 0.00 | 0.00 | 14 | 1005.7 |
| 20260905183102 | 90 | 360 | 2.0 | 0.0 | 0.00 | 0.00 | 0.00 | 14 | 1006.0 |
| 20260905182539 | 91 | 360 | 1.0 | 0.0 | 0.00 | 0.00 | 0.00 | 14 | 1005.8 |
| 20260905182019 | 90 | 360 | 1.0 | 0.0 | 0.00 | 0.00 | 0.00 | 14 | 1006.0 |
| 20260905181611 | 90 | 360 | 2.0 | 0.0 | 0.00 | 0.00 | 0.00 | 14 | 1006.1 |
| 20260905181050 | 89 | 360 | 2.0 | 0.0 | 0.00 | 0.00 | 0.00 | 15 | 1006.1 |
| 20260905180529 | 89 | 360 | 2.0 | 0.0 | 0.00 | 0.00 | 0.00 | 15 | 1006.1 |
| 20260905180008 | 89 | 360 | 2.0 | 0.0 | 0.00 | 0.00 | 0.00 | 15 | 1006.3 |
| 20260905175552 | 89 | 360 | 2.0 | 0.0 | 0.00 | 0.00 | 0.00 | 16 | 1006.0 |
| 20260905175031 | 89 | 360 | 1.0 | 0.0 | 0.00 | 0.00 | 0.00 | 16 | 1006.1 |
| 20260905174510 | 88 | 360 | 1.0 | 0.0 | 0.00 | 0.00 | 0.00 | 17 | 1006.1 |
| 20260905174053 | 88 | 360 | 1.0 | 0.0 | 0.00 | 0.00 | 0.00 | 17 | 1006.1 |
| 20260905173531 | 88 | 360 | 1.0 | 0.0 | 0.00 | 0.00 | 0.00 | 17 | 1006.2 |
| 20260905173011 | 88 | 360 | 1.0 | 0.0 | 0.00 | 0.00 | 0.00 | 17 | 1006.2 |
| 20260905172551 | 87 | 360 | 2.0 | 0.0 | 0.00 | 0.00 | 0.00 | 18 | 1006.3 |
| 20260905172030 | 87 | 360 | 2.0 | 0.0 | 0.00 | 0.00 | 0.00 | 19 | 1006.2 |
| 20260905171513 | 86 | 360 | 2.0 | 0.0 | 0.00 | 0.00 | 0.00 | 19 | 1006.4 |
| 20260905171050 | 87 | 360 | 2.0 | 0.0 | 0.00 | 0.00 | 0.00 | 19 | 1006.3 |
| 20260905170529 | 86 | 360 | 3.0 | 0.0 | 0.00 | 0.00 | 0.00 | 20 | 1006.4 |
| 20260905170009 | 85 | 360 | 2.0 | 0.0 | 0.00 | 0.00 | 0.00 | 20 | 1006.4 |
| 20260905165548 | 85 | 360 | 2.0 | 0.0 | 0.00 | 0.00 | 0.00 | 20 | 1006.2 |
| 20260905165028 | 85 | 360 | 3.0 | 0.0 | 0.00 | 0.00 | 0.00 | 21 | 1006.2 |
| 20260905164506 | 84 | 360 | 3.0 | 0.0 | 0.00 | 0.00 | 0.00 | 21 | 1006.3 |
| 20260905164054 | 84 | 360 | 2.0 | 0.0 | 0.00 | 0.00 | 0.00 | 21 | 1006.1 |
| 20260905163531 | 84 | 360 | 3.0 | 0.0 | 0.00 | 0.00 | 0.00 | 22 | 1006.2 |
| 20260905163011 | 82 | 360 | 4.0 | 0.0 | 0.00 | 0.00 | 0.00 | 23 | 1006.4 |
| 20260905162553 | 82 | 360 | 4.0 | 0.0 | 0.00 | 0.00 | 0.00 | 23 | 1006.3 |
| 20260905162038 | 81 | 360 | 4.0 | 0.0 | 0.00 | 0.00 | 0.00 | 24 | 1006.3 |
| 20260905161515 | 80 | 360 | 4.0 | 0.0 | 0.00 | 0.00 | 0.00 | 24 | 1006.2 |
| 20260905161058 | 81 | 360 | 4.0 | 0.0 | 0.00 | 0.00 | 0.00 | 24 | 1006.2 |
| 20260905160537 | 80 | 360 | 4.0 | 0.0 | 0.00 | 0.00 | 0.00 | 24 | 1006.3 |
| 20260905160017 | 80 | 360 | 4.0 | 0.0 | 0.00 | 0.00 | 0.00 | 24 | 1006.2 |
| 20260905155558 | 80 | 360 | 4.0 | 0.0 | 0.00 | 0.00 | 0.00 | 25 | 1006.0 |
| 20260905155039 | 80 | 360 | 4.0 | 0.0 | 0.00 | 0.00 | 0.00 | 25 | 1006.3 |
| 20260905154515 | 80 | 360 | 4.0 | 0.0 | 0.00 | 0.00 | 0.00 | 25 | 1006.2 |
| 20260905154059 | 79 | 360 | 4.0 | 0.0 | 0.00 | 0.00 | 0.00 | 25 | 1006.2 |
| 20260905153537 | 79 | 360 | 4.0 | 0.0 | 0.00 | 0.00 | 0.00 | 26 | 1006.3 |
| 20260905153023 | 78 | 360 | 4.0 | 0.0 | 0.00 | 0.00 | 0.00 | 26 | 1006.2 |
| 20260905152502 | 78 | 360 | 4.0 | 0.0 | 0.00 | 0.00 | 0.00 | 27 | 1006.4 |
| 20260905152044 | 78 | 360 | 4.0 | 0.0 | 0.00 | 0.00 | 0.00 | 27 | 1006.4 |
| 20260905151523 | 77 | 360 | 4.0 | 0.0 | 0.00 | 0.00 | 0.00 | 27 | 1006.4 |
| 20260905151004 | 77 | 360 | 3.0 | 0.0 | 0.00 | 0.00 | 0.00 | 27 | 1006.3 |
| 20260905150551 | 76 | 360 | 3.0 | 0.0 | 0.00 | 0.00 | 0.00 | 28 | 1006.3 |
| 20260905150030 | 76 | 360 | 3.0 | 0.0 | 0.00 | 0.00 | 0.00 | 28 | 1006.3 |
| 20260905145509 | 76 | 360 | 2.0 | 0.0 | 0.00 | 0.00 | 0.00 | 28 | 1006.1 |
| 20260905145051 | 76 | 360 | 2.0 | 0.0 | 0.00 | 0.00 | 0.00 | 28 | 1006.2 |
| 20260905144529 | 76 | 360 | 2.0 | 0.0 | 0.00 | 0.00 | 0.00 | 28 | 1006.2 |
| 20260905144005 | 75 | 360 | 2.0 | 0.0 | 0.00 | 0.00 | 0.00 | 29 | 1006.1 |
| 20260905143549 | 75 | 360 | 3.0 | 0.0 | 0.00 | 0.00 | 0.00 | 29 | 1006.1 |
| 20260905143028 | 74 | 360 | 3.0 | 0.0 | 0.00 | 0.00 | 0.00 | 29 | 1006.2 |
| 20260905142506 | 73 | 360 | 2.0 | 0.0 | 0.00 | 0.00 | 0.00 | 30 | 1006.2 |
| 20260905142052 | 73 | 360 | 2.0 | 0.0 | 0.00 | 0.00 | 0.00 | 30 | 1006.2 |
| 20260905141527 | 73 | 360 | 1.0 | 0.0 | 0.00 | 0.00 | 0.00 | 31 | 1006.1 |
| 20260905141006 | 72 | 360 | 1.0 | 0.0 | 0.00 | 0.00 | 0.00 | 31 | 1006.2 |
| 20260905140551 | 72 | 360 | 1.0 | 0.0 | 0.00 | 0.00 | 0.00 | 31 | 1006.1 |
| 20260905140025 | 72 | 360 | 1.0 | 0.0 | 0.00 | 0.00 | 0.00 | 31 | 1006.2 |
| 20260905135502 | 71 | 360 | 1.0 | 0.0 | 0.00 | 0.00 | 0.00 | 32 | 1005.7 |
| 20260905135050 | 71 | 360 | 0.0 | 0.0 | 0.00 | 0.00 | 0.00 | 31 | 1005.6 |
| 20260905134533 | 72 | 360 | 1.0 | 0.0 | 0.00 | 0.00 | 0.00 | 31 | 1005.5 |
| 20260905134011 | 72 | 360 | 1.0 | 0.0 | 0.00 | 0.00 | 0.00 | 31 | 1005.5 |
| 20260905133551 | 71 | 360 | 1.0 | 0.0 | 0.00 | 0.00 | 0.00 | 31 | 1005.3 |
| 20260905133030 | 71 | 360 | 1.0 | 0.0 | 0.00 | 0.00 | 0.00 | 31 | 1005.3 |
| 20260905132509 | 71 | 360 | 1.0 | 0.0 | 0.00 | 0.00 | 0.00 | 32 | 1005.0 |
| 20260905132056 | 71 | 360 | 1.0 | 0.0 | 0.00 | 0.00 | 0.00 | 32 | 1005.2 |
| 20260905131534 | 70 | 360 | 0.0 | 0.0 | 0.00 | 0.00 | 0.00 | 32 | 1005.1 |
| 20260905131019 | 70 | 360 | 0.0 | 0.0 | 0.00 | 0.00 | 0.00 | 32 | 1005.1 |
| 20260905130600 | 70 | 360 | 0.0 | 0.0 | 0.00 | 0.00 | 0.00 | 32 | 1005.1 |
| 20260905130038 | 70 | 360 | 0.0 | 0.0 | 0.00 | 0.00 | 0.00 | 32 | 1005.0 |
| 20260905125517 | 70 | 360 | 0.0 | 0.0 | 0.00 | 0.00 | 0.00 | 32 | 1004.7 |
| 20260905125104 | 70 | 360 | 0.0 | 0.0 | 0.00 | 0.00 | 0.00 | 31 | 1004.7 |
| 20260905124548 | 70 | 360 | 0.0 | 0.0 | 0.00 | 0.00 | 0.00 | 32 | 1004.7 |
| 20260905124027 | 69 | 360 | 0.0 | 0.0 | 0.00 | 0.00 | 0.00 | 32 | 1004.7 |
| 20260905123507 | 71 | 360 | 0.0 | 0.0 | 0.00 | 0.00 | 0.00 | 30 | 1004.6 |
| 20260905123051 | 71 | 360 | 0.0 | 0.0 | 0.00 | 0.00 | 0.00 | 30 | 1004.4 |
| 20260905122530 | 71 | 360 | 0.0 | 0.0 | 0.00 | 0.00 | 0.00 | 31 | 1004.4 |
| 20260905122007 | 71 | 360 | 0.0 | 0.0 | 0.00 | 0.00 | 0.00 | 31 | 1004.6 |
| 20260905121550 | 71 | 360 | 0.0 | 0.0 | 0.00 | 0.00 | 0.00 | 31 | 1004.3 |
| 20260905121032 | 72 | 360 | 0.0 | 0.0 | 0.00 | 0.00 | 0.00 | 30 | 1004.4 |
| 20260905120514 | 72 | 360 | 0.0 | 0.0 | 0.00 | 0.00 | 0.00 | 29 | 1004.3 |
| 20260905120116 | 73 | 360 | 1.0 | 0.0 | 0.00 | 0.00 | 0.00 | 29 | 1004.3 |
| 20260905115536 | 73 | 360 | 0.0 | 0.0 | 0.00 | 0.00 | 0.00 | 29 | 1004.0 |
| 20260905115017 | 72 | 360 | 0.0 | 0.0 | 0.00 | 0.00 | 0.00 | 30 | 1004.0 |
| 20260905114559 | 72 | 360 | 0.0 | 0.0 | 0.00 | 0.00 | 0.00 | 29 | 1003.9 |
| 20260905114045 | 73 | 360 | 0.0 | 0.0 | 0.00 | 0.00 | 0.00 | 29 | 1004.0 |
| 20260905113524 | 73 | 360 | 0.0 | 0.0 | 0.00 | 0.00 | 0.00 | 29 | 1004.0 |
| 20260905113002 | 73 | 360 | 0.0 | 0.0 | 0.00 | 0.00 | 0.00 | 29 | 1003.9 |
| 20260905112549 | 73 | 360 | 0.0 | 0.0 | 0.00 | 0.00 | 0.00 | 29 | 1003.9 |
| 20260905112028 | 72 | 360 | 0.0 | 0.0 | 0.00 | 0.00 | 0.00 | 29 | 1003.9 |
| 20260905111508 | 73 | 360 | 0.0 | 0.0 | 0.00 | 0.00 | 0.00 | 29 | 1004.0 |
| 20260905111052 | 73 | 360 | 0.0 | 0.0 | 0.00 | 0.00 | 0.00 | 29 | 1004.0 |
| 20260905110531 | 73 | 360 | 0.0 | 0.0 | 0.00 | 0.00 | 0.00 | 28 | 1003.9 |
| 20260905110009 | 74 | 360 | 1.0 | 0.0 | 0.00 | 0.00 | 0.00 | 27 | 1003.9 |
| 20260905105552 | 74 | 360 | 1.0 | 0.0 | 0.00 | 0.00 | 0.00 | 27 | 1003.9 |
| 20260905105033 | 74 | 360 | 0.0 | 0.0 | 0.00 | 0.00 | 0.00 | 27 | 1004.0 |
| 20260905104511 | 74 | 360 | 0.0 | 0.0 | 0.00 | 0.00 | 0.00 | 27 | 1003.9 |
| 20260905104058 | 74 | 360 | 0.0 | 0.0 | 0.00 | 0.00 | 0.00 | 27 | 1003.8 |
| 20260905103541 | 74 | 360 | 0.0 | 0.0 | 0.00 | 0.00 | 0.00 | 27 | 1003.8 |
| 20260905103026 | 73 | 360 | 1.0 | 0.0 | 0.00 | 0.00 | 0.00 | 27 | 1003.7 |
| 20260905102504 | 74 | 360 | 1.0 | 0.0 | 0.00 | 0.00 | 0.00 | 26 | 1003.7 |
| 20260905102048 | 74 | 360 | 1.0 | 0.0 | 0.00 | 0.00 | 0.00 | 26 | 1003.6 |
| 20260905101528 | 74 | 360 | 1.0 | 0.0 | 0.00 | 0.00 | 0.00 | 26 | 1003.6 |
| 20260905101007 | 74 | 360 | 1.0 | 0.0 | 0.00 | 0.00 | 0.00 | 26 | 1003.7 |
| 20260905100552 | 74 | 360 | 1.0 | 0.0 | 0.00 | 0.00 | 0.00 | 26 | 1003.8 |
| 20260905100033 | 74 | 360 | 1.0 | 0.0 | 0.00 | 0.00 | 0.00 | 25 | 1003.8 |
| 20260905095511 | 74 | 360 | 1.0 | 0.0 | 0.00 | 0.00 | 0.00 | 25 | 1003.8 |
| 20260905095055 | 74 | 360 | 0.0 | 0.0 | 0.00 | 0.00 | 0.00 | 25 | 1003.5 |
| 20260905094536 | 74 | 360 | 0.0 | 0.0 | 0.00 | 0.00 | 0.00 | 25 | 1003.7 |
| 20260905094012 | 74 | 360 | 0.0 | 0.0 | 0.00 | 0.00 | 0.00 | 24 | 1003.6 |
| 20260905093555 | 74 | 360 | 0.0 | 0.0 | 0.00 | 0.00 | 0.00 | 24 | 1003.6 |
| 20260905093035 | 74 | 360 | 0.0 | 0.0 | 0.00 | 0.00 | 0.00 | 23 | 1003.4 |
| 20260905092512 | 74 | 360 | 0.0 | 0.0 | 0.00 | 0.00 | 0.00 | 22 | 1003.4 |
| 20260905092059 | 75 | 360 | 0.0 | 0.0 | 0.00 | 0.00 | 0.00 | 22 | 1003.4 |
| 20260905091611 | 75 | 360 | 0.0 | 0.0 | 0.00 | 0.00 | 0.00 | 21 | 1003.3 |
| 20260905091021 | 75 | 360 | 0.0 | 0.0 | 0.00 | 0.00 | 0.00 | 21 | 1003.4 |
| 20260905090559 | 75 | 360 | 0.0 | 0.0 | 0.00 | 0.00 | 0.00 | 20 | 1003.4 |
| 20260905090042 | 76 | 360 | 1.0 | 0.0 | 0.00 | 0.00 | 0.00 | 20 | 1003.4 |
| 20260905085524 | 76 | 360 | 1.0 | 0.0 | 0.00 | 0.00 | 0.00 | 20 | 1003.5 |
| 20260905085003 | 76 | 360 | 1.0 | 0.0 | 0.00 | 0.00 | 0.00 | 19 | 1003.5 |
| 20260905084545 | 76 | 360 | 1.0 | 0.0 | 0.00 | 0.00 | 0.00 | 19 | 1003.5 |
| 20260905084027 | 76 | 360 | 0.0 | 0.0 | 0.00 | 0.00 | 0.00 | 19 | 1003.4 |
| 20260905083506 | 76 | 360 | 0.0 | 0.0 | 0.00 | 0.00 | 0.00 | 19 | 1003.3 |
| 20260905083051 | 76 | 360 | 0.0 | 0.0 | 0.00 | 0.00 | 0.00 | 19 | 1003.3 |
| 20260905082532 | 76 | 360 | 0.0 | 0.0 | 0.00 | 0.00 | 0.00 | 19 | 1003.3 |
| 20260905082017 | 76 | 360 | 0.0 | 0.0 | 0.00 | 0.00 | 0.00 | 19 | 1003.3 |
| 20260905081601 | 76 | 360 | 0.0 | 0.0 | 0.00 | 0.00 | 0.00 | 19 | 1003.3 |
| 20260905081042 | 78 | 360 | 0.0 | 0.0 | 0.00 | 0.00 | 0.00 | 18 | 1003.1 |
| 20260905080523 | 78 | 360 | 1.0 | 0.0 | 0.00 | 0.00 | 0.00 | 18 | 1003.0 |
| 20260905080006 | 78 | 360 | 1.0 | 0.0 | 0.00 | 0.00 | 0.00 | 18 | 1002.9 |
| 20260905075552 | 78 | 360 | 0.0 | 0.0 | 0.00 | 0.00 | 0.00 | 18 | 1003.1 |
| 20260905075036 | 77 | 360 | 0.0 | 0.0 | 0.00 | 0.00 | 0.00 | 19 | 1003.0 |
| 20260905074517 | 77 | 360 | 0.0 | 0.0 | 0.00 | 0.00 | 0.00 | 19 | 1003.3 |
| 20260905074100 | 78 | 360 | 0.0 | 0.0 | 0.00 | 0.00 | 0.00 | 18 | 1003.2 |
| 20260905073549 | 79 | 360 | 0.0 | 0.0 | 0.00 | 0.00 | 0.00 | 18 | 1002.9 |
| 20260905073028 | 79 | 360 | 0.0 | 0.0 | 0.00 | 0.00 | 0.00 | 18 | 1002.8 |
| 20260905072508 | 79 | 360 | 0.0 | 0.0 | 0.00 | 0.00 | 0.00 | 18 | 1002.8 |
| 20260905072051 | 79 | 360 | 0.0 | 0.0 | 0.00 | 0.00 | 0.00 | 19 | 1002.7 |
| 20260905071531 | 80 | 360 | 0.0 | 0.0 | 0.00 | 0.00 | 0.00 | 18 | 1002.7 |
| 20260905071008 | 79 | 360 | 0.0 | 0.0 | 0.00 | 0.00 | 0.00 | 18 | 1002.6 |
| 20260905070551 | 79 | 360 | 0.0 | 0.0 | 0.00 | 0.00 | 0.00 | 18 | 1002.6 |
| 20260905070036 | 80 | 360 | 1.0 | 0.0 | 0.00 | 0.00 | 0.00 | 18 | 1002.5 |
| 20260905065518 | 80 | 360 | 1.0 | 0.0 | 0.00 | 0.00 | 0.00 | 18 | 1002.7 |
| 20260905065059 | 80 | 360 | 1.0 | 0.0 | 0.00 | 0.00 | 0.00 | 18 | 1002.8 |
| 20260905064543 | 79 | 360 | 1.0 | 0.0 | 0.00 | 0.00 | 0.00 | 18 | 1002.7 |
| 20260905064023 | 78 | 360 | 1.0 | 0.0 | 0.00 | 0.00 | 0.00 | 19 | 1002.8 |
| 20260905063503 | 78 | 360 | 1.0 | 0.0 | 0.00 | 0.00 | 0.00 | 18 | 1002.8 |
| 20260905063047 | 79 | 360 | 0.0 | 0.0 | 0.00 | 0.00 | 0.00 | 18 | 1002.5 |
| 20260905062527 | 79 | 360 | 0.0 | 0.0 | 0.00 | 0.00 | 0.00 | 18 | 1002.5 |
| 20260905062009 | 79 | 360 | 0.0 | 0.0 | 0.00 | 0.00 | 0.00 | 18 | 1002.5 |
| 20260905061620 | 79 | 360 | 0.0 | 0.0 | 0.00 | 0.00 | 0.00 | 18 | 1002.4 |
| 20260905061035 | 79 | 360 | 0.0 | 0.0 | 0.00 | 0.00 | 0.00 | 18 | 1002.4 |
| 20260905060518 | 80 | 360 | 0.0 | 0.0 | 0.00 | 0.00 | 0.00 | 18 | 1002.3 |
| 20260905060115 | 80 | 360 | 0.0 | 0.0 | 0.00 | 0.00 | 0.00 | 18 | 1002.1 |
| 20260905055543 | 80 | 360 | 0.0 | 0.0 | 0.00 | 0.00 | 0.00 | 18 | 1002.2 |
| 20260905055025 | 79 | 360 | 0.0 | 0.0 | 0.00 | 0.00 | 0.00 | 18 | 1002.4 |
| 20260905054502 | 79 | 360 | 0.0 | 0.0 | 0.00 | 0.00 | 0.00 | 18 | 1002.4 |
| 20260905054052 | 79 | 360 | 1.0 | 0.0 | 0.00 | 0.00 | 0.00 | 18 | 1002.4 |
| 20260905053534 | 80 | 360 | 1.0 | 0.0 | 0.00 | 0.00 | 0.00 | 18 | 1002.4 |
| 20260905053011 | 80 | 360 | 1.0 | 0.0 | 0.00 | 0.00 | 0.00 | 17 | 1002.4 |